User: anonymous   Login
Location: Unspecified
(0.0000°N, 0.0000°E)
Time: 12:32:25
(UTC+00:00)
Language:

SICRAL 1B - Orbit

View from above orbital plane
View from above orbital plane
View from above satellite
View from above satellite

Ground track
Ground track

The orbit data is extracted from the following two-line orbital elements,

1 34810U 09020A   18325.06952924 0.00000000  00000-0  00000-0 0    06
2 34810   0.0425  96.7955 0003453 136.1575 223.8866  1.00270000    08
Epoch (UTC): 21 November 2018 01:40:07
Eccentricity: 0.0003453
inclination: 0.0425°
perigee height: 35772 km
apogee height: 35801 km
right ascension of ascending node: 96.7955°
argument of perigee: 136.1575°
revolutions per day: 1.00270000
mean anomaly at epoch: 223.8866°
orbit number at epoch: 0

The dashed part of the orbit path shows where the satellite is in the earth's shadow,  

DLR